• în Republica Moldova
  • Lista ţărilor
  • Pe 7 zile
  • Temperatura apei
  • Hartă satelitară
  • Meteo pe hartă
  • Widget-uri
  • user-avatar
    Intrare

    Meteo pe oră la Quito

    Astăzi, 24 Martie, Vineri

    Timp Temperatura Precipitaţii Vânt Presiune Umiditate
    00:00 +13°C° 0 mm 0 m/s 622 mmHg 98%
    01:00 +13°C° 0 mm 0 m/s 621 mmHg 98%
    02:00 +13°C° 0 mm 0 m/s 621 mmHg 98%
    03:00 +13°C° 0 mm 0 m/s 621 mmHg 98%
    04:00 +13°C° 0 mm 0 m/s 621 mmHg 98%
    05:00 +14°C° 0,1 mm 0 m/s 622 mmHg 97%
    06:00 +15°C° 0,1 mm 0 m/s 622 mmHg 96%
    07:00 +16°C° 0,1 mm 0 m/s 623 mmHg 95%
    08:00 +18°C° 0,1 mm 0 m/s 624 mmHg 88%
    09:00 +20°C° 0,1 mm 0 m/s 625 mmHg 81%
    10:00 +22°C° 0,1 mm 0 m/s 625 mmHg 73%
    11:00 +24°C° 0,2 mm 1 m/s 625 mmHg 73%
    12:00 +24°C° 0,2 mm 1 m/s 624 mmHg 72%
    13:00 +24°C° 0,2 mm 2 m/s 623 mmHg 72%
    14:00 +23°C° 0,1 mm 2 m/s 623 mmHg 73%
    15:00 +23°C° 0,1 mm 1 m/s 623 mmHg 73%
    16:00 +23°C° 0,1 mm 1 m/s 622 mmHg 74%
    17:00 +22°C° 0,8 mm 1 m/s 622 mmHg 81%
    18:00 +20°C° 0,8 mm 1 m/s 622 mmHg 88%
    19:00 +19°C° 0,8 mm 1 m/s 622 mmHg 95%
    20:00 +18°C° 1,2 mm 1 m/s 622 mmHg 95%
    21:00 +18°C° 1,2 mm 1 m/s 622 mmHg 95%
    22:00 +16°C° 1,2 mm 1 m/s 623 mmHg 95%
    23:00 +16°C° 0 mm 1 m/s 622 mmHg 96%

    Mâine, 25 Martie, Sâmbătă

    Timp Temperatura Precipitaţii Vânt Presiune Umiditate
    00:00 +16°C° 0 mm 1 m/s 622 mmHg 96%
    01:00 +15°C° 0 mm 1 m/s 622 mmHg 97%
    02:00 +15°C° 0 mm 1 m/s 622 mmHg 97%
    03:00 +15°C° 0 mm 1 m/s 621 mmHg 97%
    04:00 +15°C° 0 mm 1 m/s 621 mmHg 97%
    05:00 +16°C° 0 mm 1 m/s 622 mmHg 96%
    06:00 +18°C° 0 mm 1 m/s 622 mmHg 95%
    07:00 +18°C° 0 mm 1 m/s 623 mmHg 93%
    08:00 +20°C° 0 mm 1 m/s 624 mmHg 85%
    09:00 +22°C° 0 mm 1 m/s 625 mmHg 76%
    10:00 +24°C° 0 mm 1 m/s 626 mmHg 68%
    11:00 +25°C° 0 mm 1 m/s 625 mmHg 62%
    12:00 +26°C° 0 mm 1 m/s 625 mmHg 57%
    13:00 +27°C° 0 mm 2 m/s 624 mmHg 52%
    14:00 +27°C° 0,1 mm 2 m/s 624 mmHg 54%
    15:00 +26°C° 0,1 mm 2 m/s 623 mmHg 56%
    16:00 +26°C° 0,1 mm 1 m/s 622 mmHg 58%
    17:00 +23°C° 0,3 mm 1 m/s 622 mmHg 68%
    18:00 +21°C° 0,3 mm 1 m/s 622 mmHg 78%
    19:00 +18°C° 0,3 mm 1 m/s 621 mmHg 87%
    20:00 +18°C° 0,7 mm 1 m/s 622 mmHg 89%
    21:00 +16°C° 0,7 mm 1 m/s 622 mmHg 91%
    22:00 +14°C° 0,7 mm 0 m/s 622 mmHg 93%
    23:00 +14°C° 0 mm 0 m/s 622 mmHg 93%

    Poimâine, 26 Martie, Duminică

    Timp Temperatura Precipitaţii Vânt Presiune Umiditate
    00:00 +14°C° 0 mm 0 m/s 622 mmHg 94%
    01:00 +14°C° 0 mm 0 m/s 621 mmHg 94%
    02:00 +14°C° 0 mm 0 m/s 621 mmHg 94%
    03:00 +15°C° 0 mm 1 m/s 621 mmHg 95%
    04:00 +15°C° 0 mm 1 m/s 621 mmHg 95%
    05:00 +16°C° 0 mm 1 m/s 622 mmHg 94%
    06:00 +18°C° 0 mm 1 m/s 622 mmHg 94%
    07:00 +19°C° 0 mm 1 m/s 623 mmHg 93%
    08:00 +21°C° 0 mm 1 m/s 624 mmHg 85%
    09:00 +22°C° 0 mm 1 m/s 625 mmHg 76%
    10:00 +24°C° 0 mm 2 m/s 625 mmHg 68%
    11:00 +25°C° 0,1 mm 2 m/s 625 mmHg 63%
    12:00 +26°C° 0,1 mm 1 m/s 624 mmHg 58%
    13:00 +27°C° 0,1 mm 1 m/s 624 mmHg 54%
    14:00 +26°C° 0,8 mm 1 m/s 623 mmHg 60%
    15:00 +26°C° 0,8 mm 1 m/s 623 mmHg 67%
    16:00 +25°C° 0,8 mm 1 m/s 622 mmHg 73%
    17:00 +23°C° 1,1 mm 1 m/s 622 mmHg 80%
    18:00 +21°C° 1,1 mm 1 m/s 622 mmHg 86%
    19:00 +19°C° 1,1 mm 1 m/s 622 mmHg 92%
    20:00 +19°C° 0,6 mm 1 m/s 622 mmHg 93%
    21:00 +18°C° 0,6 mm 1 m/s 623 mmHg 94%
    22:00 +16°C° 0,6 mm 0 m/s 623 mmHg 95%
    23:00 +18°C° 0,7 mm 1 m/s 623 mmHg 96%

    27 Martie, Luni

    Timp Temperatura Precipitaţii Vânt Presiune Umiditate
    00:00 +18°C° 0,7 mm 1 m/s 623 mmHg 96%
    01:00 +18°C° 0,7 mm 1 m/s 622 mmHg 96%
    02:00 +18°C° 0,2 mm 1 m/s 622 mmHg 96%
    03:00 +18°C° 0,2 mm 1 m/s 622 mmHg 97%
    04:00 +18°C° 0,2 mm 1 m/s 622 mmHg 97%
    05:00 +18°C° 0,1 mm 1 m/s 622 mmHg 97%
    06:00 +18°C° 0,1 mm 1 m/s 623 mmHg 97%
    07:00 +18°C° 0,1 mm 1 m/s 623 mmHg 96%
    08:00 +19°C° 0,1 mm 1 m/s 624 mmHg 91%
    09:00 +20°C° 0,1 mm 2 m/s 624 mmHg 85%
    10:00 +21°C° 0,1 mm 2 m/s 625 mmHg 79%
    11:00 +23°C° 0,3 mm 2 m/s 624 mmHg 75%
    12:00 +24°C° 0,3 mm 2 m/s 624 mmHg 70%
    13:00 +25°C° 0,3 mm 2 m/s 624 mmHg 66%
    14:00 +24°C° 0,3 mm 2 m/s 623 mmHg 69%
    15:00 +24°C° 0,3 mm 2 m/s 623 mmHg 72%
    16:00 +24°C° 0,3 mm 2 m/s 622 mmHg 75%
    17:00 +21°C° 0,2 mm 2 m/s 622 mmHg 80%
    18:00 +20°C° 0,2 mm 2 m/s 623 mmHg 86%
    19:00 +19°C° 0,2 mm 1 m/s 623 mmHg 91%
    20:00 +19°C° 0,2 mm 1 m/s 623 mmHg 92%
    21:00 +18°C° 0,2 mm 1 m/s 623 mmHg 93%
    22:00 +18°C° 0,2 mm 1 m/s 623 mmHg 94%
    23:00 +16°C° 0,3 mm 1 m/s 623 mmHg 94%

    28 Martie, Marţi

    Timp Temperatura Precipitaţii Vânt Presiune Umiditate
    00:00 +16°C° 0,3 mm 1 m/s 622 mmHg 95%
    01:00 +15°C° 0,3 mm 1 m/s 622 mmHg 95%
    02:00 +15°C° 0,2 mm 1 m/s 622 mmHg 95%
    03:00 +15°C° 0,2 mm 1 m/s 622 mmHg 95%
    04:00 +15°C° 0,2 mm 1 m/s 621 mmHg 95%
    05:00 +16°C° 0 mm 1 m/s 622 mmHg 94%
    06:00 +16°C° 0 mm 1 m/s 623 mmHg 92%
    07:00 +18°C° 0 mm 1 m/s 623 mmHg 91%
    08:00 +19°C° 0 mm 2 m/s 624 mmHg 81%
    09:00 +21°C° 0 mm 3 m/s 625 mmHg 71%
    10:00 +23°C° 0 mm 4 m/s 625 mmHg 61%
    11:00 +25°C° 0,1 mm 4 m/s 625 mmHg 59%
    12:00 +26°C° 0,1 mm 4 m/s 624 mmHg 56%
    13:00 +26°C° 0,1 mm 4 m/s 624 mmHg 54%
    14:00 +26°C° 0,2 mm 3 m/s 623 mmHg 55%
    15:00 +26°C° 0,2 mm 3 m/s 623 mmHg 57%
    16:00 +26°C° 0,2 mm 3 m/s 623 mmHg 58%
    17:00 +24°C° 0,2 mm 2 m/s 622 mmHg 67%
    18:00 +20°C° 0,2 mm 2 m/s 622 mmHg 77%
    19:00 +18°C° 0,2 mm 2 m/s 622 mmHg 86%
    20:00 +18°C° 0,1 mm 1 m/s 622 mmHg 87%
    21:00 +18°C° 0,1 mm 1 m/s 622 mmHg 89%
    22:00 +16°C° 0,1 mm 1 m/s 622 mmHg 91%
    23:00 +16°C° 0 mm 1 m/s 622 mmHg 92%

    29 Martie, Miercuri

    Timp Temperatura Precipitaţii Vânt Presiune Umiditate
    00:00 +16°C° 0 mm 1 m/s 622 mmHg 93%
    01:00 +15°C° 0 mm 1 m/s 621 mmHg 94%
    02:00 +15°C° 0 mm 1 m/s 621 mmHg 94%
    03:00 +14°C° 0 mm 1 m/s 621 mmHg 94%
    04:00 +14°C° 0 mm 1 m/s 621 mmHg 95%
    05:00 +15°C° 0 mm 1 m/s 621 mmHg 93%
    06:00 +15°C° 0 mm 1 m/s 622 mmHg 90%
    07:00 +16°C° 0 mm 1 m/s 623 mmHg 88%
    08:00 +19°C° 0 mm 2 m/s 624 mmHg 78%
    09:00 +21°C° 0 mm 4 m/s 624 mmHg 68%
    10:00 +23°C° 0 mm 5 m/s 625 mmHg 58%
    11:00 +25°C° 0,1 mm 4 m/s 624 mmHg 55%
    12:00 +26°C° 0,1 mm 4 m/s 624 mmHg 52%
    13:00 +27°C° 0,1 mm 4 m/s 624 mmHg 48%
    14:00 +27°C° 0,1 mm 4 m/s 623 mmHg 50%
    15:00 +26°C° 0,1 mm 3 m/s 623 mmHg 51%
    16:00 +26°C° 0,1 mm 3 m/s 622 mmHg 52%
    17:00 +24°C° 0 mm 3 m/s 622 mmHg 62%
    18:00 +20°C° 0 mm 2 m/s 621 mmHg 73%
    19:00 +18°C° 0 mm 1 m/s 621 mmHg 84%
    20:00 +18°C° 0,1 mm 1 m/s 621 mmHg 83%
    21:00 +17°C° 0,1 mm 2 m/s 622 mmHg 82%
    22:00 +17°C° 0,1 mm 2 m/s 622 mmHg 82%
    23:00 +16°C° 0,1 mm 1 m/s 622 mmHg 85%
    Arată mai mult